Retour au catalogue

NOAA 12 DEB

ActifSSO
NORAD 38547·DEBRIS·🇺🇸 United States

Lancé May 14, 1991 depuis Vandenberg Space Force Base

Loading…

Prochains Passages (prochaines 24 heures)

TLE

FraisSource: Space-Track

Époque: Sep 14, 2026, 16:41 UTC

1 38547U 91032G   26257.69518060  .00000171  00000-0  81639-4 0  9999
2 38547  98.5333 241.6537 0006110  83.4164 276.7714 14.30978848776019

Suivez NOAA 12 DEB en temps réel avec AllMySat

Download on the App Store